Back to catalog

STARLINK-34020

AliveCommunicationsVLEO
NORAD 63939·PAYLOAD·🇺🇸 United States

Launched May 13, 2025 from Vandenberg Space Force Base

Loading…

Next Passes (next 24 hours)

TLE

FreshSource: CelesTrak SupGP

Epoch: Sep 14, 2026, 15:37 UTC

1 63939C 25098P   26257.65118056  .00064483  00000+0  22433-2 0  2575
2 63939  69.9997 156.3104 0002983 267.3579 317.7801 15.29545611    19

Track STARLINK-34020 in real time with AllMySat

Download on the App Store